[[{"header":{"parameterUnit":"m.s-1","parameterCategory":1,"la1":30.2991,"la2":30.254,"lo1":-89.0895,"lo2":-89.0444,"dy":0.0017,"dx":0.0017,"nx":28,"ny":28,"refTime":"2025-07-10T21:00:00:Z","depth":0,"parameterNumber":2,"parameterNumberName":"U-component_of_WINDS"},"data":[0,0,0,0,0,0,0,0,0,0,0,0,0,0,0,0,0,0,0,0,0,0,0,0,0,0,0,0,0,0,0,0,0,0,0,0,0,0,0,0,0,0,0,0,0,0,0,0,0,0,0,0,0,0,0,0,0,0,1.9881,1.9882,0,1.9997,1.9998,1.9999,1.9989,1.9987,1.9985,1.9984,2.0105,2.0109,2.0114,0,0,0,0,0,0,0,0,0,0,0,0,0,1.9652,1.9656,1.9881,1.9882,1.9884,1.9996,1.9998,2.0,1.9989,1.9987,1.9985,1.9983,2.0103,2.0109,2.0115,0,0,0,0,0,0,0,0,0,0,0,0,0,1.9758,1.9657,1.9881,1.9892,1.9894,1.9996,1.9998,2.0,1.999,1.9987,1.9984,1.9982,2.0101,2.0108,2.0115,2.0214,0,0,2.0138,2.0141,0,0,0,0,0,0,0,0,1.9752,1.9766,1.9889,1.9892,1.9894,1.9976,1.9961,2.0072,1.999,1.9954,1.9984,1.9981,2.0064,2.0074,2.0102,2.0219,2.0225,2.0138,2.0143,2.0146,2.0148,0,0,0,0,0,0,0,1.9744,1.9761,1.9927,1.9891,1.9894,1.9892,1.9904,1.9982,2.0022,1.9957,1.9956,1.997,2.0065,2.0095,2.0105,2.0226,2.0138,2.0145,2.0149,2.0152,2.0428,2.043,0,0,0,0,0,0,1.9734,1.9755,1.9923,1.993,1.9815,1.9898,1.9911,1.9952,2.0022,2.0029,1.9972,1.9969,2.0084,2.0096,2.0109,2.0227,2.0146,2.0153,2.0157,2.0425,2.0428,2.0432,0,0,0,0,0,0,1.9729,1.9749,1.9918,1.9843,1.9864,1.9905,1.9951,1.9956,1.9986,2.0033,2.004,1.9995,2.0082,2.0098,2.0187,2.0231,2.0156,2.0163,2.0421,2.0426,2.043,2.0465,0,0,0,0,0,0,1.9723,1.9747,1.9786,1.9843,1.9868,1.9995,1.9953,1.996,1.9998,1.9995,2.0057,2.0064,2.0081,2.0176,2.0194,2.024,2.0168,2.0418,2.0423,2.0429,2.046,2.047,2.0478,0,0,0,0,0,1.9714,1.9792,1.9788,1.9808,1.9916,1.9997,2.0011,2.0028,2.0002,2.004,2.007,2.0062,2.0223,2.0185,2.0206,2.0254,2.0415,2.0422,2.0428,2.0456,2.0468,2.0478,0,0,0,0,0,0,1.974,1.98,1.9796,1.9894,1.994,1.9995,2.0045,2.0041,2.0097,2.0092,2.0111,2.0125,2.0214,2.0243,2.02,2.0351,2.0315,2.0326,2.0329,2.0341,2.035,2.0341,2.0174,0,0,0,0,0,1.9756,1.9817,1.9866,1.9948,1.9972,2.0004,2.004,2.0049,2.0098,2.0118,2.0155,2.0203,2.0264,2.0304,2.0363,2.0463,2.0476,2.0506,2.0516,2.0523,2.0532,2.0585,2.0599,2.0453,2.0453,2.0453,0,0,1.9792,1.9832,1.987,1.9954,1.9991,2.0053,2.0021,2.0088,2.0134,2.0129,2.0214,2.0242,2.0297,2.0391,2.0435,2.0418,2.0575,2.0531,2.0537,2.0542,2.0593,2.0607,2.0619,2.0458,2.0457,2.0456,0,0,1.9889,1.9926,1.9997,2.0034,2.009,2.011,2.0127,2.0182,2.02,2.0285,2.0282,2.0337,2.0442,2.0481,2.0514,2.0622,2.0617,2.0641,2.0689,2.074,2.0752,2.0762,2.0799,2.0812,2.065,2.065,2.065,0,1.9926,2.0019,2.0034,2.0102,2.0138,2.0134,2.0205,2.0241,2.0314,2.0339,2.0319,2.0449,2.0486,2.0588,2.0614,2.0642,2.0661,2.0634,2.0749,2.0759,2.0769,2.0804,2.0818,2.0653,2.0652,2.0652,2.0652,0,2.0062,2.0126,2.0177,2.0245,2.0287,2.0357,2.0382,2.0423,2.0427,2.0449,2.0535,2.0579,2.0645,2.067,2.0676,2.0772,2.076,2.0744,2.0709,2.0785,2.0819,2.0832,2.0656,2.0655,2.0654,2.0654,0,0,2.018,2.0253,2.0271,2.0301,2.0361,2.0411,2.0479,2.0542,2.0576,2.0626,2.0683,2.0771,2.0755,2.0794,2.0803,2.0848,2.0928,2.0827,2.0828,2.0843,2.1035,2.1046,2.1062,2.0925,2.0928,2.093,2.103,0,2.0281,2.0401,2.0415,2.0522,2.0581,2.0576,2.0635,2.0678,2.07,2.0753,2.0777,2.0838,2.0814,2.0837,2.0881,2.0909,2.0967,2.0902,2.0978,2.098,2.0964,2.108,2.1092,2.1185,2.1044,2.1046,2.1048,0,2.0417,2.0468,2.058,2.0629,2.0654,2.0707,2.0765,2.0816,2.0863,2.0876,2.0917,2.092,2.0989,2.095,2.1046,2.1001,2.1033,2.1051,2.1055,2.1063,2.1019,2.109,2.1215,2.1229,2.1069,2.1067,2.1065,0,2.0489,2.0586,2.0665,2.0691,2.0751,2.0788,2.0814,2.0859,2.0896,2.0946,2.097,2.1029,2.1061,2.1106,2.1125,2.1095,2.1219,2.1182,2.1231,2.123,2.1257,2.1255,2.1389,2.1279,2.1278,2.1278,2.1278,0,2.0601,2.067,2.0698,2.0747,2.0823,2.0838,2.0913,2.0938,2.0977,2.103,2.103,2.108,2.1101,2.1154,2.1169,2.1245,2.126,2.1272,2.1275,2.1272,2.127,2.1293,2.1286,2.1282,2.1281,2.128,2.128,0,2.0696,2.0718,2.0803,2.0852,2.0865,2.0919,2.096,2.1007,2.1027,2.1094,2.111,2.1143,2.1205,2.1227,2.1303,2.1313,2.1401,2.1399,2.1384,2.1385,2.1432,2.1427,2.1585,2.1605,2.1482,2.1483,2.1484,0,2.0766,2.0818,2.0871,2.0906,2.0933,2.0989,2.1026,2.1042,2.108,2.1136,2.1175,2.1237,2.1286,2.1386,2.1416,2.1473,2.1473,2.1524,2.1481,2.1475,2.1472,2.1468,2.1473,2.1532,2.1533,2.1534,2.1535,0,2.0887,2.0894,2.0947,2.1002,2.1045,2.109,2.1133,2.1161,2.1184,2.1226,2.1288,2.1327,2.1403,2.1463,2.1522,2.1549,2.1546,2.1548,2.1562,2.1559,2.1548,2.1553,2.1405,2.1544,2.1543,2.1543,2.1542,2.1542,2.0971,2.1016,2.1059,2.1117,2.115,2.119,2.1235,2.126,2.1312,2.1374,2.138,2.1447,2.1491,2.1569,2.1598,2.1651,2.1637,2.1658,2.1663,2.1668,2.167,2.1539,2.1662,2.1661,2.1661,2.1661,2.1661,0,2.1091,2.1117,2.117,2.1229,2.1274,2.1265,2.1312,2.135,2.1408,2.1449,2.1497,2.1568,2.1625,2.1659,2.1717,2.1752,2.1752,2.1766,2.1764,2.177,2.168,2.1662,2.1766,2.1766,2.1766,2.1765,2.1765,2.1765,2.1158,2.1233,2.1246,2.1337,2.1363,2.1428,2.1455,2.1491,2.1523,2.1602,2.1649,2.167,2.1707,2.1767,2.1819,2.1828,2.1849,2.1865,2.1872,2.1787,2.1777,2.1766,2.1749,2.1869,2.1869,2.1957,2.1958,2.1958]},{"header":{"parameterUnit":"m.s-1","parameterCategory":1,"la1":30.2991,"la2":30.254,"lo1":-89.0895,"lo2":-89.0444,"dy":0.0017,"dx":0.0017,"nx":28,"ny":28,"refTime":"2025-07-10T21:00:00:Z","depth":0,"parameterNumber":3,"parameterNumberName":"V-component_of_WINDS"},"data":[0,0,0,0,0,0,0,0,0,0,0,0,0,0,0,0,0,0,0,0,0,0,0,0,0,0,0,0,0,0,0,0,0,0,0,0,0,0,0,0,0,0,0,0,0,0,0,0,0,0,0,0,0,0,0,0,0,0,4.5795,4.5795,0,4.5781,4.578,4.578,4.5754,4.5753,4.5753,4.5752,4.5737,4.5737,4.5737,0,0,0,0,0,0,0,0,0,0,0,0,0,4.5801,4.5801,4.5795,4.5795,4.5795,4.5781,4.578,4.578,4.5754,4.5753,4.5753,4.5752,4.5737,4.5737,4.5737,0,0,0,0,0,0,0,0,0,0,0,0,0,4.5793,4.5801,4.5795,4.578,4.5779,4.5781,4.578,4.578,4.5754,4.5753,4.5752,4.5752,4.5737,4.5737,4.5737,4.5752,0,0,4.5737,4.5737,0,0,0,0,0,0,0,0,4.5794,4.5793,4.5782,4.5781,4.5779,4.5768,4.5777,4.5771,4.5754,4.5763,4.5752,4.5751,4.5748,4.5747,4.5746,4.5752,4.5751,4.5737,4.5737,4.5737,4.5737,0,0,0,0,0,0,0,4.5794,4.5794,4.5789,4.5782,4.578,4.5774,4.5772,4.5775,4.576,4.5762,4.576,4.5759,4.5747,4.5746,4.5745,4.5751,4.5737,4.5737,4.5737,4.5737,4.5769,4.577,0,0,0,0,0,0,4.5797,4.5794,4.579,4.5789,4.5785,4.5775,4.5772,4.5773,4.576,4.5757,4.576,4.5758,4.5746,4.5745,4.5745,4.5761,4.5737,4.5737,4.5737,4.5768,4.5769,4.577,0,0,0,0,0,0,4.5797,4.5797,4.579,4.5791,4.579,4.5775,4.5776,4.5773,4.5772,4.5758,4.5755,4.5762,4.5745,4.5744,4.5751,4.5761,4.5737,4.5737,4.5767,4.5769,4.577,4.5796,0,0,0,0,0,0,4.5798,4.5797,4.5803,4.5791,4.579,4.5797,4.5776,4.5773,4.5772,4.5769,4.5759,4.5756,4.5745,4.5751,4.5751,4.576,4.5737,4.5766,4.5768,4.5769,4.5794,4.5798,4.5801,0,0,0,0,0,4.5798,4.5811,4.5803,4.5803,4.5797,4.5797,4.5796,4.5783,4.5773,4.5778,4.577,4.5757,4.576,4.5752,4.5751,4.5761,4.5766,4.5767,4.5769,4.5792,4.5797,4.5801,0,0,0,0,0,0,4.5823,4.5809,4.58,4.581,4.5805,4.5793,4.5799,4.5789,4.5786,4.5784,4.5768,4.5765,4.5774,4.5768,4.5759,4.5776,4.5761,4.5763,4.5778,4.5783,4.5786,4.5787,4.5737,0,0,0,0,0,4.583,4.5832,4.5819,4.5829,4.5827,4.5814,4.5814,4.5804,4.5798,4.5796,4.5788,4.5783,4.5783,4.5783,4.5782,4.5794,4.5791,4.5801,4.5804,4.5807,4.5808,4.5814,4.5818,4.5776,4.5776,4.5776,0,0,4.5843,4.5836,4.5838,4.5834,4.5829,4.5831,4.5812,4.5815,4.5817,4.5796,4.5801,4.5796,4.5789,4.5798,4.5802,4.5794,4.582,4.5809,4.5812,4.5811,4.5816,4.582,4.5824,4.5777,4.5777,4.5777,0,0,4.5868,4.5864,4.5871,4.5867,4.586,4.5851,4.5853,4.5843,4.5838,4.5844,4.5829,4.5831,4.5831,4.5827,4.5824,4.585,4.5838,4.5851,4.5868,4.5874,4.5877,4.588,4.5888,4.5892,4.5852,4.5853,4.5853,0,4.5886,4.5889,4.5876,4.588,4.5878,4.5861,4.5868,4.5865,4.5858,4.5858,4.585,4.585,4.5844,4.5852,4.5858,4.5858,4.5859,4.5851,4.5878,4.5881,4.5883,4.5891,4.5894,4.5854,4.5854,4.5854,4.5854,0,4.591,4.5912,4.5919,4.5913,4.5913,4.5919,4.5907,4.5908,4.5899,4.5892,4.5897,4.5891,4.5888,4.589,4.5881,4.5896,4.5891,4.5881,4.5865,4.5889,4.5896,4.5899,4.5856,4.5856,4.5855,4.5855,0,0,4.5948,4.5937,4.5939,4.5937,4.5929,4.593,4.5936,4.5934,4.5935,4.5932,4.5935,4.5937,4.5927,4.5925,4.5916,4.5921,4.5941,4.591,4.5909,4.5915,4.5957,4.5964,4.5968,4.5934,4.5935,4.5935,4.5957,0,4.5971,4.5979,4.5968,4.5978,4.598,4.5965,4.597,4.5966,4.596,4.596,4.5953,4.5954,4.5942,4.5941,4.5946,4.5938,4.5949,4.5936,4.5936,4.5937,4.5937,4.5971,4.5978,4.6,4.596,4.5961,4.5961,0,4.5997,4.5996,4.6006,4.5998,4.5999,4.6003,4.6001,4.6002,4.5997,4.5992,4.5991,4.598,4.5985,4.5972,4.5978,4.5969,4.5969,4.5966,4.5966,4.5964,4.5949,4.5969,4.6006,4.6009,4.5965,4.5965,4.5965,0,4.6023,4.6023,4.603,4.6028,4.6019,4.6023,4.6019,4.6014,4.6014,4.6012,4.6012,4.6011,4.601,4.6009,4.5999,4.599,4.6006,4.5992,4.6001,4.6002,4.6004,4.6003,4.604,4.6007,4.6007,4.6007,4.6007,0,4.6048,4.6054,4.6041,4.6045,4.6052,4.6041,4.6048,4.6043,4.6039,4.6042,4.6029,4.6032,4.6019,4.602,4.6012,4.6018,4.6018,4.6014,4.6012,4.6014,4.6015,4.6012,4.601,4.6007,4.6007,4.6007,4.6007,0,4.6076,4.6067,4.6073,4.6065,4.6063,4.6069,4.6062,4.6065,4.6059,4.6063,4.6063,4.6053,4.6054,4.6044,4.6044,4.6038,4.6048,4.6043,4.6049,4.6047,4.6057,4.6055,4.6092,4.6096,4.6061,4.6062,4.6062,0,4.6091,4.6096,4.6089,4.609,4.6088,4.609,4.6089,4.6079,4.6079,4.6075,4.6079,4.6079,4.6079,4.6081,4.6074,4.6073,4.6068,4.6081,4.6068,4.607,4.6067,4.6066,4.6066,4.6083,4.6083,4.6084,4.6084,0,4.6119,4.6115,4.6116,4.6115,4.6116,4.6114,4.6112,4.6114,4.6103,4.6104,4.6105,4.6105,4.6105,4.6105,4.6103,4.61,4.609,4.6089,4.6091,4.6092,4.6095,4.6093,4.6055,4.6087,4.6087,4.6087,4.6087,4.6087,4.6141,4.6144,4.614,4.6141,4.6139,4.6138,4.6141,4.6135,4.6136,4.6135,4.613,4.6132,4.6128,4.6125,4.6123,4.6124,4.6118,4.6121,4.6122,4.6122,4.6123,4.6097,4.6124,4.6124,4.6124,4.6124,4.6124,0,4.6167,4.6164,4.6165,4.6163,4.6165,4.6157,4.6154,4.6156,4.6158,4.6156,4.6156,4.6157,4.6158,4.6152,4.6151,4.6154,4.615,4.6154,4.6153,4.6152,4.613,4.6127,4.6158,4.6158,4.6158,4.6158,4.6158,4.6158,4.6181,4.6186,4.6182,4.6187,4.6184,4.6187,4.6186,4.6185,4.6183,4.6186,4.6186,4.6182,4.6178,4.6178,4.6178,4.6176,4.6176,4.6182,4.6179,4.6157,4.6154,4.6151,4.6148,4.6183,4.6183,4.6201,4.6201,4.6201]}]]